Time,TemperatureF,DewpointF,PressureIn,WindDirection,WindDirectionDegrees,WindSpeedMPH,WindSpeedGustMPH,Humidity,HourlyPrecipIn,Conditions,Clouds,dailyrainin,SoftwareType,DateUTC
2013-04-01 00:00:00,37.1,30.2,29.75,WNW,288,2.0,5.0,76,0.00,,BKN048,0.08,VWS V14.01,2013-04-01 04:00:00,
2013-04-01 00:01:00,37.1,30.2,29.75,WSW,243,7.0,8.0,76,0.00,,,0.00,VWS V14.01,2013-04-01 04:01:00,
2013-04-01 00:02:00,37.1,30.2,29.75,WNW,292,3.0,6.0,76,0.00,,,0.00,VWS V14.01,2013-04-01 04:02:00,
2013-04-01 00:07:00,37.0,30.1,29.75,West,270,4.0,5.0,76,0.00,,,0.00,VWS V14.01,2013-04-01 04:07:00,
2013-04-01 00:12:00,37.0,30.5,29.75,WNW,303,6.0,13.0,77,0.00,,,0.00,VWS V14.01,2013-04-01 04:12:00,
2013-04-01 00:13:00,37.0,30.5,29.75,WNW,282,7.0,13.0,77,0.00,,,0.00,VWS V14.01,2013-04-01 04:13:00,
2013-04-01 00:18:00,36.9,30.4,29.76,NW,313,19.0,26.0,77,0.00,,,0.00,VWS V14.01,2013-04-01 04:18:00,
2013-04-01 00:23:00,35.3,29.8,29.77,NW,319,18.0,21.0,80,0.00,,,0.00,VWS V14.01,2013-04-01 04:23:00,
2013-04-01 00:29:00,34.0,29.1,29.77,NW,320,7.0,16.0,82,0.00,,,0.00,VWS V14.01,2013-04-01 04:29:00,
2013-04-01 00:34:00,33.4,29.1,29.77,NNW,341,10.0,11.0,84,0.00,,,0.00,VWS V14.01,2013-04-01 04:34:00,
2013-04-01 00:39:00,32.9,28.6,29.77,NNW,336,1.0,3.0,84,0.00,,,0.00,VWS V14.01,2013-04-01 04:39:00,
2013-04-01 00:44:00,32.6,28.3,29.77,WNW,284,2.0,11.0,84,0.00,,,0.00,VWS V14.01,2013-04-01 04:44:00,
2013-04-01 00:50:00,32.5,28.5,29.77,NW,319,1.0,14.0,85,0.00,,,0.00,VWS V14.01,2013-04-01 04:50:00,
2013-04-01 00:55:00,32.4,28.4,29.77,NW,311,3.0,9.0,85,0.00,,,0.00,VWS V14.01,2013-04-01 04:55:00,
2013-04-01 01:00:00,32.2,28.2,29.77,NW,311,2.0,2.0,85,0.00,,,0.00,VWS V14.01,2013-04-01 05:00:00,
2013-04-01 01:05:00,32.1,28.1,29.78,NW,313,1.0,3.0,85,0.00,,,0.00,VWS V14.01,2013-04-01 05:05:00,
2013-04-01 01:10:00,32.0,27.7,29.78,WNW,300,1.0,3.0,84,0.00,,,0.00,VWS V14.01,2013-04-01 05:10:00,
2013-04-01 01:16:00,31.9,27.6,29.78,NW,312,0.0,1.0,84,0.00,,,0.00,VWS V14.01,2013-04-01 05:16:00,
2013-04-01 01:21:00,31.9,27.3,29.78,NW,310,9.0,9.0,83,0.00,,,0.00,VWS V14.01,2013-04-01 05:21:00,
2013-04-01 01:26:00,31.7,27.1,29.78,WNW,294,4.0,11.0,83,0.00,,,0.00,VWS V14.01,2013-04-01 05:26:00,
2013-04-01 01:32:00,31.7,26.8,29.79,NNW,341,1.0,9.0,82,0.00,,,0.00,VWS V14.01,2013-04-01 05:32:00,
2013-04-01 01:37:00,31.6,26.8,29.79,NW,317,1.0,2.0,82,0.00,,,0.00,VWS V14.01,2013-04-01 05:37:00,
2013-04-01 01:42:00,31.6,26.5,29.79,NW,307,3.0,3.0,81,0.00,,,0.00,VWS V14.01,2013-04-01 05:42:00,
2013-04-01 01:47:00,31.5,26.4,29.79,NW,308,2.0,5.0,81,0.00,,,0.00,VWS V14.01,2013-04-01 05:47:00,
2013-04-01 01:52:00,31.4,26.0,29.80,WNW,303,2.0,5.0,80,0.00,,,0.00,VWS V14.01,2013-04-01 05:52:00,
2013-04-01 01:57:00,31.4,26.0,29.80,NW,309,3.0,10.0,80,0.00,,,0.00,VWS V14.01,2013-04-01 05:57:00,
2013-04-01 02:03:00,31.3,25.6,29.80,NW,310,0.0,1.0,79,0.00,,,0.00,VWS V14.01,2013-04-01 06:03:00,
2013-04-01 02:08:00,31.2,25.1,29.81,WNW,295,1.0,9.0,78,0.00,,,0.00,VWS V14.01,2013-04-01 06:08:00,
2013-04-01 02:13:00,31.2,25.1,29.81,WNW,301,2.0,4.0,78,0.00,,BKN080,0.00,VWS V14.01,2013-04-01 06:13:00,
2013-04-01 02:18:00,31.1,25.0,29.81,NW,319,3.0,4.0,78,0.00,,BKN080,0.00,VWS V14.01,2013-04-01 06:18:00,
2013-04-01 02:23:00,31.1,24.8,29.81,NW,307,0.0,2.0,77,0.00,,BKN080,0.00,VWS V14.01,2013-04-01 06:23:00,
2013-04-01 02:28:00,31.0,24.6,29.82,WNW,293,2.0,4.0,77,0.00,,BKN080,0.00,VWS V14.01,2013-04-01 06:28:00,
2013-04-01 02:34:00,30.9,24.2,29.82,North,351,1.0,3.0,76,0.00,,BKN080,0.00,VWS V14.01,2013-04-01 06:34:00,
2013-04-01 02:39:00,30.8,23.8,29.82,NW,321,0.0,12.0,75,0.00,,BKN080,0.00,VWS V14.01,2013-04-01 06:39:00,
2013-04-01 02:44:00,30.7,23.1,29.82,West,280,2.0,12.0,73,0.00,,BKN080,0.00,VWS V14.01,2013-04-01 06:44:00,
2013-04-01 02:50:00,30.6,22.7,29.82,NNW,329,10.0,15.0,72,0.00,,BKN080,0.00,VWS V14.01,2013-04-01 06:50:00,
2013-04-01 02:55:00,30.6,22.0,29.82,NW,309,2.0,5.0,70,0.00,,BKN080,0.00,VWS V14.01,2013-04-01 06:55:00,
2013-04-01 03:00:00,30.5,21.6,29.83,NW,319,1.0,2.0,69,0.00,,BKN080,0.00,VWS V14.01,2013-04-01 07:00:00,
2013-04-01 03:05:00,30.4,21.1,29.83,WNW,297,7.0,11.0,68,0.00,,BKN080,0.00,VWS V14.01,2013-04-01 07:05:00,
2013-04-01 03:10:00,30.4,21.1,29.83,WNW,292,4.0,5.0,68,0.00,,BKN080,0.00,VWS V14.01,2013-04-01 07:10:00,
2013-04-01 03:16:00,30.3,21.0,29.83,WNW,295,6.0,10.0,68,0.00,,SCT070,0.00,VWS V14.01,2013-04-01 07:16:00,
2013-04-01 03:21:00,30.3,21.0,29.83,WNW,290,3.0,10.0,68,0.00,,SCT070,0.00,VWS V14.01,2013-04-01 07:21:00,
2013-04-01 03:26:00,30.2,20.9,29.83,NW,308,2.0,2.0,68,0.00,,SCT070,0.00,VWS V14.01,2013-04-01 07:26:00,
2013-04-01 03:31:00,30.2,20.9,29.83,NW,305,0.0,1.0,68,0.00,,SCT070,0.00,VWS V14.01,2013-04-01 07:31:00,
2013-04-01 03:36:00,30.1,20.8,29.84,NW,307,0.0,2.0,68,0.00,,SCT070,0.00,VWS V14.01,2013-04-01 07:36:00,
2013-04-01 03:42:00,29.9,20.6,29.84,NW,309,2.0,2.0,68,0.00,,SCT070,0.00,VWS V14.01,2013-04-01 07:42:00,
2013-04-01 03:47:00,29.8,20.5,29.84,WNW,295,2.0,3.0,68,0.00,,SCT070,0.00,VWS V14.01,2013-04-01 07:47:00,
2013-04-01 03:52:00,29.7,20.5,29.85,NW,312,3.0,6.0,68,0.00,,SCT070,0.00,VWS V14.01,2013-04-01 07:52:00,
2013-04-01 03:58:00,29.7,20.5,29.85,NW,313,3.0,5.0,68,0.00,,SCT070,0.00,VWS V14.01,2013-04-01 07:58:00,
2013-04-01 04:03:00,29.7,20.5,29.85,WNW,289,1.0,2.0,68,0.00,,CLR,0.00,VWS V14.01,2013-04-01 08:03:00,
2013-04-01 04:08:00,29.7,20.5,29.85,WNW,302,0.0,2.0,68,0.00,,CLR,0.00,VWS V14.01,2013-04-01 08:08:00,
2013-04-01 04:13:00,29.6,20.4,29.86,WNW,286,0.0,4.0,68,0.00,,CLR,0.00,VWS V14.01,2013-04-01 08:13:00,
2013-04-01 04:18:00,29.5,20.3,29.86,West,274,5.0,9.0,68,0.00,,CLR,0.00,VWS V14.01,2013-04-01 08:18:00,
2013-04-01 04:24:00,29.4,20.2,29.86,NW,307,1.0,5.0,68,0.00,,CLR,0.00,VWS V14.01,2013-04-01 08:24:00,
2013-04-01 04:29:00,29.4,19.8,29.86,NW,309,2.0,10.0,67,0.00,,CLR,0.00,VWS V14.01,2013-04-01 08:29:00,
2013-04-01 04:34:00,29.4,19.5,29.86,West,274,6.0,6.0,66,0.00,,CLR,0.00,VWS V14.01,2013-04-01 08:34:00,
2013-04-01 04:39:00,29.4,19.5,29.86,NW,324,2.0,3.0,66,0.00,,CLR,0.00,VWS V14.01,2013-04-01 08:39:00,
2013-04-01 04:44:00,29.4,19.1,29.86,WNW,297,0.0,6.0,65,0.00,,CLR,0.00,VWS V14.01,2013-04-01 08:44:00,
2013-04-01 04:50:00,29.4,19.1,29.87,WNW,299,3.0,3.0,65,0.00,,CLR,0.00,VWS V14.01,2013-04-01 08:50:00,
2013-04-01 04:55:00,29.4,19.1,29.87,WNW,299,1.0,4.0,65,0.00,,CLR,0.00,VWS V14.01,2013-04-01 08:55:00,
2013-04-01 05:00:00,29.4,19.1,29.87,WNW,301,2.0,2.0,65,0.00,,CLR,0.00,VWS V14.01,2013-04-01 09:00:00,
2013-04-01 05:05:00,29.3,19.0,29.87,WNW,282,1.0,3.0,65,0.00,,CLR,0.00,VWS V14.01,2013-04-01 09:05:00,
2013-04-01 05:10:00,29.4,19.1,29.87,WNW,303,5.0,12.0,65,0.00,,CLR,0.00,VWS V14.01,2013-04-01 09:10:00,
2013-04-01 05:16:00,29.4,19.1,29.88,WNW,286,1.0,3.0,65,0.00,,CLR,0.00,VWS V14.01,2013-04-01 09:16:00,
2013-04-01 05:21:00,29.5,19.2,29.88,WNW,303,1.0,2.0,65,0.00,,CLR,0.00,VWS V14.01,2013-04-01 09:21:00,
2013-04-01 05:27:00,29.5,19.2,29.88,WNW,302,0.0,1.0,65,0.00,,CLR,0.00,VWS V14.01,2013-04-01 09:27:00,
2013-04-01 05:32:00,29.5,19.2,29.88,West,270,1.0,2.0,65,0.00,,CLR,0.00,VWS V14.01,2013-04-01 09:32:00,
2013-04-01 05:37:00,29.5,19.2,29.88,WNW,288,3.0,3.0,65,0.00,,CLR,0.00,VWS V14.01,2013-04-01 09:37:00,
2013-04-01 05:42:00,29.5,19.2,29.89,WNW,291,1.0,3.0,65,0.00,,CLR,0.00,VWS V14.01,2013-04-01 09:42:00,
2013-04-01 05:47:00,29.4,19.1,29.89,West,272,0.0,0.0,65,0.00,,CLR,0.00,VWS V14.01,2013-04-01 09:47:00,
2013-04-01 05:53:00,29.2,18.9,29.89,West,267,0.0,3.0,65,0.00,,CLR,0.00,VWS V14.01,2013-04-01 09:53:00,
2013-04-01 05:58:00,29.2,18.9,29.89,West,269,4.0,4.0,65,0.00,,CLR,0.00,VWS V14.01,2013-04-01 09:58:00,
2013-04-01 06:03:00,29.1,18.8,29.89,WNW,292,3.0,9.0,65,0.00,,OVC060,0.00,VWS V14.01,2013-04-01 10:03:00,
2013-04-01 06:08:00,29.1,18.5,29.90,NW,317,13.0,15.0,64,0.00,,OVC060,0.00,VWS V14.01,2013-04-01 10:08:00,
2013-04-01 06:13:00,29.3,17.9,29.90,West,272,13.0,16.0,62,0.00,,OVC060,0.00,VWS V14.01,2013-04-01 10:13:00,
2013-04-01 06:19:00,29.4,17.6,29.90,WNW,282,8.0,14.0,61,0.00,,OVC060,0.00,VWS V14.01,2013-04-01 10:19:00,
2013-04-01 06:24:00,29.5,17.3,29.90,West,275,2.0,11.0,60,0.00,,OVC060,0.00,VWS V14.01,2013-04-01 10:24:00,
2013-04-01 06:29:00,29.5,17.3,29.91,WNW,299,1.0,5.0,60,0.00,,OVC060,0.00,VWS V14.01,2013-04-01 10:29:00,
2013-04-01 06:34:00,29.4,17.2,29.91,West,273,2.0,10.0,60,0.00,,OVC060,0.00,VWS V14.01,2013-04-01 10:34:00,
2013-04-01 06:39:00,29.3,17.1,29.91,WNW,284,2.0,10.0,60,0.00,,OVC060,0.00,VWS V14.01,2013-04-01 10:39:00,
2013-04-01 06:44:00,29.2,17.1,29.91,NW,307,1.0,2.0,60,0.00,,OVC060,0.00,VWS V14.01,2013-04-01 10:44:00,
2013-04-01 06:50:00,29.2,17.1,29.92,NW,304,2.0,2.0,60,0.00,,OVC060,0.00,VWS V14.01,2013-04-01 10:50:00,
2013-04-01 06:55:00,29.0,16.9,29.92,WNW,289,1.0,6.0,60,0.00,,OVC060,0.00,VWS V14.01,2013-04-01 10:55:00,
2013-04-01 07:00:00,28.9,16.8,29.92,West,263,0.0,3.0,60,0.00,,OVC060,0.00,VWS V14.01,2013-04-01 11:00:00,
2013-04-01 07:05:00,28.7,16.6,29.92,NW,322,2.0,7.0,60,0.00,,OVC060,0.00,VWS V14.01,2013-04-01 11:05:00,
2013-04-01 07:11:00,28.7,16.6,29.93,WNW,303,3.0,11.0,60,0.00,,OVC060,0.00,VWS V14.01,2013-04-01 11:11:00,
2013-04-01 07:16:00,28.6,16.5,29.93,West,278,1.0,5.0,60,0.00,,BKN060,0.00,VWS V14.01,2013-04-01 11:16:00,
2013-04-01 07:21:00,28.5,16.4,29.93,WNW,285,4.0,6.0,60,0.00,,BKN060,0.00,VWS V14.01,2013-04-01 11:21:00,
2013-04-01 07:26:00,28.4,16.3,29.93,West,279,0.0,10.0,60,0.00,,BKN060,0.00,VWS V14.01,2013-04-01 11:26:00,
2013-04-01 07:31:00,28.4,16.3,29.93,NW,306,3.0,11.0,60,0.00,,BKN060,0.00,VWS V14.01,2013-04-01 11:31:00,
2013-04-01 07:36:00,28.3,16.2,29.94,WNW,297,10.0,13.0,60,0.00,,BKN060,0.00,VWS V14.01,2013-04-01 11:36:00,
2013-04-01 07:41:00,28.2,16.1,29.94,NNW,330,0.0,5.0,60,0.00,,BKN060,0.00,VWS V14.01,2013-04-01 11:41:00,
2013-04-01 07:47:00,28.2,16.1,29.94,West,270,11.0,11.0,60,0.00,,BKN060,0.00,VWS V14.01,2013-04-01 11:47:00,
2013-04-01 07:52:00,28.1,15.2,29.95,NW,309,11.0,13.0,58,0.00,,BKN060,0.00,VWS V14.01,2013-04-01 11:52:00,
2013-04-01 07:57:00,28.2,14.9,29.95,WNW,301,13.0,16.0,57,0.00,,BKN060,0.00,VWS V14.01,2013-04-01 11:57:00,
2013-04-01 08:02:00,28.2,14.9,29.95,WNW,296,3.0,5.0,57,0.00,,BKN060,0.00,VWS V14.01,2013-04-01 12:02:00,
2013-04-01 08:07:00,28.2,14.5,29.96,NW,304,5.0,7.0,56,0.00,,BKN060,0.00,VWS V14.01,2013-04-01 12:07:00,
2013-04-01 08:13:00,28.3,15.0,29.96,NW,319,5.0,5.0,57,0.00,,SCT060,0.00,VWS V14.01,2013-04-01 12:13:00,
2013-04-01 08:18:00,28.4,15.1,29.96,WSW,251,13.0,14.0,57,0.00,,SCT060,0.00,VWS V14.01,2013-04-01 12:18:00,
2013-04-01 08:23:00,28.5,14.8,29.97,West,280,2.0,12.0,56,0.00,,SCT060,0.00,VWS V14.01,2013-04-01 12:23:00,
2013-04-01 08:28:00,28.6,14.9,29.97,NW,317,5.0,14.0,56,0.00,,SCT060,0.00,VWS V14.01,2013-04-01 12:28:00,
2013-04-01 08:34:00,28.6,15.3,29.97,NW,305,3.0,10.0,57,0.00,,SCT060,0.00,VWS V14.01,2013-04-01 12:34:00,
2013-04-01 08:39:00,28.8,15.5,29.97,NW,315,4.0,12.0,57,0.00,,SCT060,0.00,VWS V14.01,2013-04-01 12:39:00,
2013-04-01 08:44:00,29.0,15.7,29.98,WNW,301,3.0,9.0,57,0.00,,SCT060,0.00,VWS V14.01,2013-04-01 12:44:00,
2013-04-01 08:49:00,29.2,15.9,29.98,NNW,332,3.0,18.0,57,0.00,,SCT060,0.00,VWS V14.01,2013-04-01 12:49:00,
2013-04-01 08:54:00,29.2,15.5,29.98,WNW,286,12.0,17.0,56,0.00,,SCT060,0.00,VWS V14.01,2013-04-01 12:54:00,
2013-04-01 08:59:00,29.3,15.1,29.98,WNW,284,9.0,13.0,55,0.00,,SCT060,0.00,VWS V14.01,2013-04-01 12:59:00,
2013-04-01 09:04:00,29.5,14.9,29.98,NW,317,2.0,12.0,54,0.00,,SCT060,0.00,VWS V14.01,2013-04-01 13:04:00,
2013-04-01 09:09:00,29.6,14.6,29.98,NNW,346,7.0,19.0,53,0.00,,SCT060,0.00,VWS V14.01,2013-04-01 13:09:00,
2013-04-01 09:15:00,29.7,15.1,29.98,NW,318,14.0,22.0,54,0.00,,FEW060,0.00,VWS V14.01,2013-04-01 13:15:00,
2013-04-01 09:20:00,29.8,15.2,29.98,WNW,295,12.0,17.0,54,0.00,,FEW060,0.00,VWS V14.01,2013-04-01 13:20:00,
2013-04-01 09:25:00,30.1,15.9,29.99,WNW,301,6.0,6.0,55,0.00,,FEW060,0.00,VWS V14.01,2013-04-01 13:25:00,
2013-04-01 09:30:00,30.2,15.1,29.99,WNW,302,5.0,10.0,53,0.00,,FEW060,0.00,VWS V14.01,2013-04-01 13:30:00,
2013-04-01 09:35:00,30.2,15.6,29.99,WNW,288,10.0,15.0,54,0.00,,FEW060,0.00,VWS V14.01,2013-04-01 13:35:00,
2013-04-01 09:41:00,30.2,15.1,29.99,WNW,302,7.0,18.0,53,0.00,,FEW060,0.00,VWS V14.01,2013-04-01 13:41:00,
2013-04-01 09:46:00,30.0,14.1,30.00,NW,307,14.0,25.0,51,0.00,,FEW060,0.00,VWS V14.01,2013-04-01 13:46:00,
2013-04-01 09:52:00,29.7,13.8,30.00,WNW,283,17.0,25.0,51,0.00,,FEW060,0.00,VWS V14.01,2013-04-01 13:52:00,
2013-04-01 09:57:00,29.7,14.2,30.00,NW,320,11.0,14.0,52,0.00,,FEW060,0.00,VWS V14.01,2013-04-01 13:57:00,
2013-04-01 10:02:00,29.8,14.3,30.00,NW,309,13.0,16.0,52,0.00,,FEW060,0.00,VWS V14.01,2013-04-01 14:02:00,
2013-04-01 10:07:00,29.9,14.4,30.00,NW,316,11.0,15.0,52,0.00,,FEW060,0.00,VWS V14.01,2013-04-01 14:07:00,
2013-04-01 10:12:00,30.2,14.3,30.00,West,280,2.0,14.0,51,0.00,,BKN045,0.00,VWS V14.01,2013-04-01 14:12:00,
2013-04-01 10:17:00,30.3,14.8,30.00,NW,317,9.0,13.0,52,0.00,,BKN045,0.00,VWS V14.01,2013-04-01 14:17:00,
2013-04-01 10:22:00,30.4,14.4,30.00,WNW,298,13.0,19.0,51,0.00,,BKN045,0.00,VWS V14.01,2013-04-01 14:22:00,
2013-04-01 10:28:00,30.5,15.0,30.01,NW,318,12.0,16.0,52,0.00,,BKN045,0.00,VWS V14.01,2013-04-01 14:28:00,
2013-04-01 10:33:00,30.7,14.7,30.01,NW,313,4.0,13.0,51,0.00,,BKN045,0.00,VWS V14.01,2013-04-01 14:33:00,
2013-04-01 10:38:00,31.0,15.0,30.01,NNW,341,13.0,15.0,51,0.00,,BKN045,0.00,VWS V14.01,2013-04-01 14:38:00,
2013-04-01 10:43:00,31.1,14.6,30.01,NNW,346,0.0,7.0,50,0.00,,BKN045,0.00,VWS V14.01,2013-04-01 14:43:00,
2013-04-01 10:48:00,31.1,14.6,30.01,NW,318,10.0,13.0,50,0.00,,BKN045,0.00,VWS V14.01,2013-04-01 14:48:00,
2013-04-01 10:54:00,31.1,15.1,30.01,WNW,288,13.0,19.0,51,0.00,,BKN045,0.00,VWS V14.01,2013-04-01 14:54:00,
2013-04-01 10:59:00,31.0,15.0,30.01,WNW,295,2.0,7.0,51,0.00,,BKN045,0.00,VWS V14.01,2013-04-01 14:59:00,
2013-04-01 11:04:00,31.0,15.4,30.02,WNW,295,18.0,21.0,52,0.00,,BKN045,0.00,VWS V14.01,2013-04-01 15:04:00,
2013-04-01 11:09:00,30.6,15.5,30.02,WSW,247,9.0,14.0,53,0.00,,BKN045,0.00,VWS V14.01,2013-04-01 15:09:00,
2013-04-01 11:15:00,30.5,16.3,30.02,NW,319,12.0,15.0,55,0.00,,BKN049,0.00,VWS V14.01,2013-04-01 15:15:00,
2013-04-01 11:20:00,30.6,16.4,30.02,West,280,2.0,12.0,55,0.00,,BKN049,0.00,VWS V14.01,2013-04-01 15:20:00,
2013-04-01 11:25:00,30.7,17.3,30.02,NW,322,6.0,6.0,57,0.00,,BKN049,0.00,VWS V14.01,2013-04-01 15:25:00,
2013-04-01 11:30:00,31.4,17.5,30.02,West,274,14.0,21.0,56,0.00,,BKN049,0.00,VWS V14.01,2013-04-01 15:30:00,
2013-04-01 11:36:00,31.1,17.2,30.02,NW,320,2.0,7.0,56,0.00,,BKN049,0.00,VWS V14.01,2013-04-01 15:36:00,
2013-04-01 11:41:00,31.4,18.4,30.03,WNW,303,16.0,17.0,58,0.00,,BKN049,0.00,VWS V14.01,2013-04-01 15:41:00,
2013-04-01 11:46:00,31.8,19.1,30.03,WSW,245,12.0,14.0,59,0.00,,BKN049,0.00,VWS V14.01,2013-04-01 15:46:00,
2013-04-01 11:52:00,31.4,18.7,30.03,WSW,255,5.0,6.0,59,0.00,,BKN049,0.00,VWS V14.01,2013-04-01 15:52:00,
2013-04-01 11:57:00,31.2,17.3,30.03,WSW,253,15.0,15.0,56,0.00,,BKN049,0.00,VWS V14.01,2013-04-01 15:57:00,
2013-04-01 12:02:00,31.5,18.0,30.03,WNW,284,11.0,20.0,57,0.00,,BKN049,0.00,VWS V14.01,2013-04-01 16:02:00,
2013-04-01 12:08:00,32.2,18.3,30.03,West,267,6.0,6.0,56,0.00,,BKN049,0.00,VWS V14.01,2013-04-01 16:08:00,
2013-04-01 12:13:00,32.5,17.3,30.03,West,263,9.0,14.0,53,0.00,,BKN055,0.00,VWS V14.01,2013-04-01 16:13:00,
2013-04-01 12:18:00,32.4,17.2,30.03,WNW,302,16.0,16.0,53,0.00,,BKN055,0.00,VWS V14.01,2013-04-01 16:18:00,
2013-04-01 12:23:00,32.0,16.8,30.03,NW,315,1.0,13.0,53,0.00,,BKN055,0.00,VWS V14.01,2013-04-01 16:23:00,
2013-04-01 12:29:00,31.5,17.2,30.03,WNW,303,8.0,16.0,55,0.00,,BKN055,0.00,VWS V14.01,2013-04-01 16:29:00,
2013-04-01 12:34:00,31.6,18.1,30.03,NW,309,15.0,17.0,57,0.00,,BKN055,0.00,VWS V14.01,2013-04-01 16:34:00,
2013-04-01 12:39:00,32.2,18.3,30.04,WSW,249,14.0,20.0,56,0.00,,BKN055,0.00,VWS V14.01,2013-04-01 16:39:00,
2013-04-01 12:44:00,32.1,17.8,30.03,WSW,250,4.0,17.0,55,0.00,,BKN055,0.00,VWS V14.01,2013-04-01 16:44:00,
2013-04-01 12:50:00,32.2,18.3,30.04,WNW,290,16.0,16.0,56,0.00,,BKN055,0.00,VWS V14.01,2013-04-01 16:50:00,
2013-04-01 12:55:00,32.2,17.9,30.04,West,265,14.0,14.0,55,0.00,,BKN055,0.00,VWS V14.01,2013-04-01 16:55:00,
2013-04-01 13:00:00,32.0,18.1,30.04,West,269,26.0,26.0,56,0.00,,BKN055,0.00,VWS V14.01,2013-04-01 17:00:00,
2013-04-01 13:05:00,31.5,18.8,30.05,West,279,6.0,16.0,59,0.00,,BKN055,0.00,VWS V14.01,2013-04-01 17:05:00,
2013-04-01 13:10:00,31.1,18.1,30.04,West,263,7.0,13.0,58,0.00,,BKN055,0.00,VWS V14.01,2013-04-01 17:10:00,
2013-04-01 13:17:00,31.2,17.3,30.04,WNW,295,8.0,14.0,56,0.00,,OVC060,0.00,VWS V14.01,2013-04-01 17:17:00,
2013-04-01 13:22:00,31.2,16.9,30.05,West,272,12.0,15.0,55,0.00,,OVC060,0.00,VWS V14.01,2013-04-01 17:22:00,
2013-04-01 13:27:00,31.4,18.4,30.04,WNW,301,3.0,15.0,58,0.00,,OVC060,0.00,VWS V14.01,2013-04-01 17:27:00,
2013-04-01 13:32:00,31.6,17.7,30.05,West,263,3.0,14.0,56,0.00,,OVC060,0.00,VWS V14.01,2013-04-01 17:32:00,
2013-04-01 13:37:00,32.0,18.1,30.04,WSW,257,2.0,7.0,56,0.00,,OVC060,0.00,VWS V14.01,2013-04-01 17:37:00,
2013-04-01 13:42:00,32.5,16.9,30.04,WNW,297,17.0,19.0,52,0.00,,OVC060,0.00,VWS V14.01,2013-04-01 17:42:00,
2013-04-01 13:48:00,32.4,16.8,30.05,WSW,258,13.0,24.0,52,0.00,,OVC060,0.00,VWS V14.01,2013-04-01 17:48:00,
2013-04-01 13:53:00,32.0,17.2,30.05,WNW,296,17.0,19.0,54,0.00,,OVC060,0.00,VWS V14.01,2013-04-01 17:53:00,
2013-04-01 13:58:00,32.3,18.0,30.04,West,271,5.0,17.0,55,0.00,,OVC060,0.00,VWS V14.01,2013-04-01 17:58:00,
2013-04-01 14:04:00,32.4,16.8,30.05,WSW,258,7.0,16.0,52,0.00,,OVC060,0.00,VWS V14.01,2013-04-01 18:04:00,
2013-04-01 14:09:00,31.9,16.7,30.05,West,276,9.0,22.0,53,0.00,,OVC060,0.00,VWS V14.01,2013-04-01 18:09:00,
2013-04-01 14:14:00,31.6,16.9,30.05,NW,317,10.0,20.0,54,0.00,,OVC055,0.00,VWS V14.01,2013-04-01 18:14:00,
2013-04-01 14:19:00,31.7,16.5,30.05,West,261,9.0,11.0,53,0.00,,OVC055,0.00,VWS V14.01,2013-04-01 18:19:00,
2013-04-01 14:24:00,31.7,16.5,30.05,West,259,5.0,18.0,53,0.01,,OVC055,0.01,VWS V14.01,2013-04-01 18:24:00,
2013-04-01 14:30:00,31.6,17.3,30.05,WNW,297,5.0,10.0,55,0.01,,OVC055,0.01,VWS V14.01,2013-04-01 18:30:00,
2013-04-01 14:35:00,32.0,17.2,30.05,WSW,254,13.0,16.0,54,0.01,,OVC055,0.01,VWS V14.01,2013-04-01 18:35:00,
2013-04-01 14:40:00,31.8,16.6,30.05,WSW,240,9.0,13.0,53,0.01,,OVC055,0.01,VWS V14.01,2013-04-01 18:40:00,
2013-04-01 14:45:00,31.8,17.1,30.06,West,267,3.0,14.0,54,0.01,,OVC055,0.01,VWS V14.01,2013-04-01 18:45:00,
2013-04-01 14:51:00,31.9,16.7,30.05,WNW,301,13.0,20.0,53,0.01,,OVC055,0.01,VWS V14.01,2013-04-01 18:51:00,
2013-04-01 14:56:00,31.8,17.9,30.06,WSW,238,10.0,13.0,56,0.01,,OVC055,0.01,VWS V14.01,2013-04-01 18:56:00,
2013-04-01 15:02:00,31.7,17.4,30.05,WNW,282,15.0,16.0,55,0.01,,OVC055,0.01,VWS V14.01,2013-04-01 19:02:00,
2013-04-01 15:07:00,31.7,17.4,30.06,NNW,336,12.0,18.0,55,0.01,,OVC055,0.01,VWS V14.01,2013-04-01 19:07:00,
2013-04-01 15:12:00,31.6,16.9,30.06,NW,311,5.0,10.0,54,0.01,,OVC055,0.01,VWS V14.01,2013-04-01 19:12:00,
2013-04-01 15:17:00,31.4,17.1,30.06,West,274,11.0,17.0,55,0.01,,OVC055,0.01,VWS V14.01,2013-04-01 19:17:00,
2013-04-01 15:23:00,31.1,18.5,30.06,West,263,12.0,20.0,59,0.01,,OVC055,0.01,VWS V14.01,2013-04-01 19:23:00,
2013-04-01 15:28:00,31.5,17.6,30.06,WSW,253,13.0,15.0,56,0.01,,OVC055,0.01,VWS V14.01,2013-04-01 19:28:00,
2013-04-01 15:33:00,31.6,17.3,30.06,West,260,15.0,20.0,55,0.00,,OVC055,0.01,VWS V14.01,2013-04-01 19:33:00,
2013-04-01 15:39:00,31.5,18.0,30.06,West,277,4.0,17.0,57,0.00,,OVC055,0.01,VWS V14.01,2013-04-01 19:39:00,
2013-04-01 15:44:00,31.4,17.5,30.06,NW,312,6.0,16.0,56,0.00,,OVC055,0.01,VWS V14.01,2013-04-01 19:44:00,
2013-04-01 15:49:00,31.5,16.8,30.06,West,277,11.0,14.0,54,0.00,,OVC055,0.01,VWS V14.01,2013-04-01 19:49:00,
2013-04-01 15:54:00,31.7,17.0,30.06,WSW,256,3.0,19.0,54,0.00,,OVC055,0.01,VWS V14.01,2013-04-01 19:54:00,
2013-04-01 15:59:00,31.8,15.8,30.07,WNW,282,10.0,15.0,51,0.00,,OVC055,0.01,VWS V14.01,2013-04-01 19:59:00,
2013-04-01 16:04:00,31.7,16.5,30.07,WNW,300,15.0,15.0,53,0.00,,OVC055,0.01,VWS V14.01,2013-04-01 20:04:00,
2013-04-01 16:10:00,32.2,16.1,30.06,WSW,250,1.0,15.0,51,0.00,,,0.01,VWS V14.01,2013-04-01 20:10:00,
2013-04-01 16:15:00,32.4,16.8,30.07,WNW,302,8.0,16.0,52,0.00,,,0.01,VWS V14.01,2013-04-01 20:15:00,
2013-04-01 16:20:00,32.6,16.5,30.07,NNW,329,11.0,22.0,51,0.00,,,0.01,VWS V14.01,2013-04-01 20:20:00,
2013-04-01 16:25:00,32.9,16.8,30.07,West,274,5.0,20.0,51,0.00,,,0.01,VWS V14.01,2013-04-01 20:25:00,
2013-04-01 16:31:00,32.3,14.8,30.07,West,271,6.0,12.0,48,0.00,,,0.01,VWS V14.01,2013-04-01 20:31:00,
2013-04-01 16:36:00,31.8,15.3,30.07,WNW,283,17.0,17.0,50,0.00,,,0.01,VWS V14.01,2013-04-01 20:36:00,
2013-04-01 16:41:00,31.4,15.8,30.07,WNW,297,10.0,10.0,52,0.00,,,0.01,VWS V14.01,2013-04-01 20:41:00,
2013-04-01 16:46:00,31.1,15.5,30.07,West,268,1.0,7.0,52,0.00,,,0.01,VWS V14.01,2013-04-01 20:46:00,
2013-04-01 16:51:00,31.0,15.4,30.07,WNW,287,4.0,15.0,52,0.00,,,0.01,VWS V14.01,2013-04-01 20:51:00,
2013-04-01 16:57:00,30.8,15.3,30.07,WNW,294,4.0,16.0,52,0.00,,,0.01,VWS V14.01,2013-04-01 20:57:00,
2013-04-01 17:02:00,30.9,15.4,30.07,West,274,2.0,15.0,52,0.00,,,0.01,VWS V14.01,2013-04-01 21:02:00,
2013-04-01 17:07:00,30.9,14.5,30.07,WNW,284,6.0,17.0,50,0.00,,,0.01,VWS V14.01,2013-04-01 21:07:00,
2013-04-01 17:12:00,30.9,14.5,30.07,WNW,287,6.0,8.0,50,0.00,,BKN060,0.01,VWS V14.01,2013-04-01 21:12:00,
2013-04-01 17:17:00,31.1,14.6,30.07,West,265,3.0,11.0,50,0.00,,BKN060,0.01,VWS V14.01,2013-04-01 21:17:00,
2013-04-01 17:22:00,31.3,14.4,30.07,West,264,5.0,21.0,49,0.00,,BKN060,0.01,VWS V14.01,2013-04-01 21:22:00,
2013-04-01 17:27:00,31.2,14.3,30.07,West,273,2.0,12.0,49,0.00,,BKN060,0.01,VWS V14.01,2013-04-01 21:27:00,
2013-04-01 17:32:00,31.2,14.3,30.07,WNW,283,3.0,14.0,49,0.00,,BKN060,0.01,VWS V14.01,2013-04-01 21:32:00,
2013-04-01 17:38:00,31.2,14.7,30.07,West,280,3.0,7.0,50,0.00,,BKN060,0.01,VWS V14.01,2013-04-01 21:38:00,
2013-04-01 17:43:00,31.1,14.2,30.08,WNW,282,4.0,9.0,49,0.00,,BKN060,0.01,VWS V14.01,2013-04-01 21:43:00,
2013-04-01 17:48:00,31.3,15.3,30.07,West,275,8.0,8.0,51,0.00,,BKN060,0.01,VWS V14.01,2013-04-01 21:48:00,
2013-04-01 17:53:00,31.3,15.7,30.08,WSW,247,5.0,7.0,52,0.00,,BKN060,0.01,VWS V14.01,2013-04-01 21:53:00,
2013-04-01 17:58:00,31.2,16.1,30.08,WSW,238,13.0,16.0,53,0.00,,BKN060,0.01,VWS V14.01,2013-04-01 21:58:00,
2013-04-01 18:04:00,30.9,16.6,30.08,West,267,15.0,19.0,55,0.00,,BKN060,0.01,VWS V14.01,2013-04-01 22:04:00,
2013-04-01 18:09:00,30.3,17.7,30.08,WSW,257,10.0,12.0,59,0.00,,BKN060,0.01,VWS V14.01,2013-04-01 22:09:00,
2013-04-01 18:14:00,30.1,17.5,30.08,West,276,5.0,13.0,59,0.00,,BKN060,0.01,VWS V14.01,2013-04-01 22:14:00,
2013-04-01 18:19:00,30.0,16.6,30.08,WSW,250,6.0,8.0,57,0.00,,BKN060,0.01,VWS V14.01,2013-04-01 22:19:00,
2013-04-01 18:24:00,30.1,17.1,30.08,WNW,282,2.0,7.0,58,0.00,,BKN060,0.01,VWS V14.01,2013-04-01 22:24:00,
2013-04-01 18:29:00,30.2,16.8,30.08,WSW,245,7.0,15.0,57,0.00,,BKN060,0.01,VWS V14.01,2013-04-01 22:29:00,
2013-04-01 18:34:00,30.3,16.9,30.08,West,274,2.0,5.0,57,0.00,,BKN060,0.01,VWS V14.01,2013-04-01 22:34:00,
2013-04-01 18:40:00,30.6,16.8,30.08,WNW,290,1.0,1.0,56,0.00,,BKN060,0.01,VWS V14.01,2013-04-01 22:40:00,
2013-04-01 18:45:00,31.0,15.0,30.08,West,270,19.0,19.0,51,0.00,,BKN060,0.01,VWS V14.01,2013-04-01 22:45:00,
2013-04-01 18:50:00,30.9,14.0,30.08,West,272,11.0,17.0,49,0.00,,BKN060,0.01,VWS V14.01,2013-04-01 22:50:00,
2013-04-01 18:55:00,30.6,13.3,30.08,WNW,284,12.0,20.0,48,0.00,,BKN060,0.01,VWS V14.01,2013-04-01 22:55:00,
2013-04-01 19:00:00,30.5,14.1,30.08,WNW,284,3.0,12.0,50,0.00,,BKN060,0.01,VWS V14.01,2013-04-01 23:00:00,
2013-04-01 19:05:00,30.6,14.2,30.08,NNW,346,2.0,6.0,50,0.00,,BKN060,0.01,VWS V14.01,2013-04-01 23:05:00,
2013-04-01 19:10:00,30.7,14.7,30.08,West,260,14.0,17.0,51,0.00,,BKN060,0.01,VWS V14.01,2013-04-01 23:10:00,
2013-04-01 19:15:00,30.5,14.5,30.08,NW,307,11.0,14.0,51,0.00,,BKN060,0.01,VWS V14.01,2013-04-01 23:15:00,
2013-04-01 19:22:00,30.4,14.9,30.08,WNW,285,4.0,4.0,52,0.00,,BKN060,0.01,VWS V14.01,2013-04-01 23:22:00,
2013-04-01 19:27:00,30.3,14.8,30.08,West,266,3.0,4.0,52,0.00,,BKN060,0.01,VWS V14.01,2013-04-01 23:27:00,
2013-04-01 19:32:00,30.4,14.9,30.08,WSW,256,2.0,10.0,52,0.00,,BKN060,0.01,VWS V14.01,2013-04-01 23:32:00,
2013-04-01 19:37:00,30.5,15.0,30.08,WSW,255,8.0,10.0,52,0.00,,BKN060,0.01,VWS V14.01,2013-04-01 23:37:00,
2013-04-01 19:43:00,30.4,14.9,30.08,West,268,5.0,5.0,52,0.00,,BKN060,0.01,VWS V14.01,2013-04-01 23:43:00,
2013-04-01 19:48:00,30.3,14.8,30.09,WNW,299,8.0,8.0,52,0.00,,BKN060,0.01,VWS V14.01,2013-04-01 23:48:00,
2013-04-01 19:53:00,30.2,14.3,30.08,West,280,2.0,9.0,51,0.00,,BKN060,0.01,VWS V14.01,2013-04-01 23:53:00,
2013-04-01 19:58:00,30.2,14.3,30.09,West,278,10.0,10.0,51,0.00,,BKN060,0.01,VWS V14.01,2013-04-01 23:58:00,
2013-04-01 20:03:00,30.2,14.3,30.09,West,281,4.0,6.0,51,0.00,,BKN042,0.01,VWS V14.01,2013-04-02 00:03:00,
2013-04-01 20:09:00,30.2,14.3,30.08,WNW,295,3.0,4.0,51,0.00,,BKN042,0.01,VWS V14.01,2013-04-02 00:09:00,
2013-04-01 20:14:00,30.1,14.6,30.08,WNW,287,1.0,3.0,52,0.00,,BKN042,0.01,VWS V14.01,2013-04-02 00:14:00,
2013-04-01 20:19:00,30.0,15.0,30.08,WNW,285,1.0,4.0,53,0.00,,BKN042,0.01,VWS V14.01,2013-04-02 00:19:00,
2013-04-01 20:24:00,30.0,15.0,30.08,WSW,253,0.0,0.0,53,0.00,,BKN042,0.01,VWS V14.01,2013-04-02 00:24:00,
2013-04-01 20:29:00,29.9,15.3,30.08,West,276,2.0,4.0,54,0.00,,BKN042,0.01,VWS V14.01,2013-04-02 00:29:00,
2013-04-01 20:35:00,29.9,15.3,30.08,West,261,2.0,3.0,54,0.00,,BKN042,0.01,VWS V14.01,2013-04-02 00:35:00,
2013-04-01 20:40:00,29.9,15.3,30.08,WSW,255,0.0,0.0,54,0.00,,BKN042,0.01,VWS V14.01,2013-04-02 00:40:00,
2013-04-01 20:45:00,29.9,15.7,30.08,WSW,251,0.0,1.0,55,0.00,,BKN042,0.01,VWS V14.01,2013-04-02 00:45:00,
2013-04-01 20:50:00,29.9,15.7,30.08,WSW,244,0.0,2.0,55,0.00,,BKN042,0.01,VWS V14.01,2013-04-02 00:50:00,
2013-04-01 20:56:00,29.9,15.7,30.08,WSW,251,0.0,2.0,55,0.00,,BKN042,0.01,VWS V14.01,2013-04-02 00:56:00,
2013-04-01 21:01:00,29.9,15.7,30.09,WSW,249,3.0,3.0,55,0.00,,BKN055,0.01,VWS V14.01,2013-04-02 01:01:00,
2013-04-01 21:06:00,29.8,16.0,30.09,WSW,249,0.0,0.0,56,0.00,,BKN055,0.01,VWS V14.01,2013-04-02 01:06:00,
2013-04-01 21:11:00,29.8,16.0,30.09,WSW,249,0.0,0.0,56,0.00,,BKN055,0.01,VWS V14.01,2013-04-02 01:11:00,
2013-04-01 21:16:00,29.7,15.9,30.08,WSW,249,0.0,0.0,56,0.00,,BKN055,0.01,VWS V14.01,2013-04-02 01:16:00,
2013-04-01 21:21:00,29.5,16.2,30.09,WSW,249,0.0,0.0,57,0.00,,BKN055,0.01,VWS V14.01,2013-04-02 01:21:00,
2013-04-01 21:27:00,29.5,16.2,30.09,WSW,249,0.0,0.0,57,0.00,,BKN055,0.01,VWS V14.01,2013-04-02 01:27:00,
2013-04-01 21:32:00,29.4,16.5,30.09,WSW,248,0.0,0.0,58,0.00,,BKN055,0.01,VWS V14.01,2013-04-02 01:32:00,
2013-04-01 21:37:00,29.3,16.4,30.09,WSW,248,0.0,0.0,58,0.00,,BKN055,0.01,VWS V14.01,2013-04-02 01:37:00,
2013-04-01 21:42:00,29.3,16.4,30.09,WSW,248,0.0,0.0,58,0.00,,BKN055,0.01,VWS V14.01,2013-04-02 01:42:00,
2013-04-01 21:47:00,29.1,16.2,30.09,WSW,248,0.0,0.0,58,0.00,,BKN055,0.01,VWS V14.01,2013-04-02 01:47:00,
2013-04-01 21:52:00,29.0,16.5,30.09,WSW,248,0.0,0.0,59,0.00,,BKN055,0.01,VWS V14.01,2013-04-02 01:52:00,
2013-04-01 21:58:00,28.9,16.4,30.09,WSW,248,0.0,0.0,59,0.00,,BKN055,0.01,VWS V14.01,2013-04-02 01:58:00,
2013-04-01 22:03:00,28.7,16.2,30.09,WSW,248,0.0,0.0,59,0.00,,BKN055,0.01,VWS V14.01,2013-04-02 02:03:00,
2013-04-01 22:08:00,28.5,16.0,30.09,WSW,248,0.0,0.0,59,0.00,,BKN055,0.01,VWS V14.01,2013-04-02 02:08:00,
2013-04-01 22:14:00,28.4,15.9,30.09,WSW,248,0.0,0.0,59,0.00,,SCT060,0.01,VWS V14.01,2013-04-02 02:14:00,
2013-04-01 22:19:00,28.2,16.1,30.09,WSW,248,0.0,0.0,60,0.00,,SCT060,0.01,VWS V14.01,2013-04-02 02:19:00,
2013-04-01 22:24:00,28.0,15.9,30.09,WSW,248,0.0,0.0,60,0.00,,SCT060,0.01,VWS V14.01,2013-04-02 02:24:00,
2013-04-01 22:29:00,27.8,15.7,30.09,WSW,248,0.0,0.0,60,0.00,,SCT060,0.01,VWS V14.01,2013-04-02 02:29:00,
2013-04-01 22:34:00,27.6,15.6,30.09,WSW,248,0.0,0.0,60,0.00,,SCT060,0.01,VWS V14.01,2013-04-02 02:34:00,
2013-04-01 22:39:00,27.5,15.8,30.09,WSW,248,0.0,0.0,61,0.00,,SCT060,0.01,VWS V14.01,2013-04-02 02:39:00,
2013-04-01 22:44:00,27.3,15.6,30.09,WSW,248,0.0,0.0,61,0.00,,SCT060,0.01,VWS V14.01,2013-04-02 02:44:00,
2013-04-01 22:50:00,27.1,15.4,30.09,WSW,248,0.0,0.0,61,0.00,,SCT060,0.01,VWS V14.01,2013-04-02 02:50:00,
2013-04-01 22:55:00,26.9,15.3,30.09,WSW,248,0.0,0.0,61,0.00,,SCT060,0.01,VWS V14.01,2013-04-02 02:55:00,
2013-04-01 23:00:00,26.6,15.0,30.09,WSW,248,0.0,0.0,61,0.00,,SCT060,0.01,VWS V14.01,2013-04-02 03:00:00,
2013-04-01 23:05:00,26.4,14.8,30.10,WSW,248,0.0,0.0,61,0.00,,SCT060,0.01,VWS V14.01,2013-04-02 03:05:00,
2013-04-01 23:10:00,26.1,14.9,30.10,WSW,248,0.0,0.0,62,0.00,,SCT060,0.01,VWS V14.01,2013-04-02 03:10:00,
2013-04-01 23:15:00,25.9,14.7,30.10,WSW,248,0.0,0.0,62,0.00,,FEW060,0.01,VWS V14.01,2013-04-02 03:15:00,
2013-04-01 23:20:00,25.7,14.9,30.10,WSW,248,0.0,0.0,63,0.00,,FEW060,0.01,VWS V14.01,2013-04-02 03:20:00,
2013-04-01 23:26:00,25.6,15.1,30.10,WSW,248,0.0,0.0,64,0.00,,FEW060,0.01,VWS V14.01,2013-04-02 03:26:00,
2013-04-01 23:31:00,25.4,14.9,30.10,WSW,248,0.0,0.0,64,0.00,,FEW060,0.01,VWS V14.01,2013-04-02 03:31:00,
2013-04-01 23:36:00,25.3,15.2,30.10,WSW,248,0.0,0.0,65,0.00,,FEW060,0.01,VWS V14.01,2013-04-02 03:36:00,
2013-04-01 23:41:00,25.2,15.1,30.10,WSW,248,0.0,0.0,65,0.00,,FEW060,0.01,VWS V14.01,2013-04-02 03:41:00,
2013-04-01 23:46:00,25.0,14.9,30.10,WSW,248,0.0,0.0,65,0.00,,FEW060,0.01,VWS V14.01,2013-04-02 03:46:00,
2013-04-01 23:52:00,24.9,14.8,30.10,WSW,248,0.0,0.0,65,0.00,,FEW060,0.01,VWS V14.01,2013-04-02 03:52:00,
2013-04-01 23:57:00,24.8,15.1,30.10,WSW,248,0.0,0.0,66,0.00,,FEW060,0.01,VWS V14.01,2013-04-02 03:57:00,